User: anonymous   Login
Location: Unspecified
(0.0000°N, 0.0000°E)
Time: 22:27:42
(UTC+00:00)
Language:

STARLINK-32508 - Orbit

View from above orbital plane
View from above orbital plane
View from above satellite
View from above satellite

Ground track
Ground track

The orbit is defined by the following mean orbital elements,

1 62158U          26145.54335196 +.00000000 +00000-0 +52961-3 0 00005
2 62158  42.9995  84.0868 0000498 324.2542  35.8276 15.27587697    07
Epoch (UTC): 25 May 2026 13:02:25
Eccentricity: 0.0000498
inclination: 42.9995°
perigee height: 483 km
apogee height: 483 km
right ascension of ascending node: 84.0868°
argument of perigee: 324.2542°
revolutions per day: 15.27587697
mean anomaly at epoch: 35.8276°

The dashed part of the orbit path shows where the satellite is in the earth's shadow,  

DLR